User: anonymous   Login
Location: Brede
(50.9167°N, 0.6000°E)
Time: 19:04:50
(UTC+00:00)
Language:

Cosmos 1437 - Orbit

View from above orbital plane
View from above orbital plane
View from above satellite
View from above satellite

Ground track
Ground track

The orbit data is extracted from the following two-line orbital elements,

1 13770U 83003A   20295.50824364  .00017780  00000-0  16760-3 0  9998
2 13770  81.1576  70.9616 0002406 191.9871 168.1328 15.66911266 76921
Epoch (UTC): 21 October 2020 12:11:52
Eccentricity: 0.0002406
inclination: 81.1576°
perigee height: 366 km
apogee height: 369 km
right ascension of ascending node: 70.9616°
argument of perigee: 191.9871°
revolutions per day: 15.66911266
mean anomaly at epoch: 168.1328°
orbit number at epoch: 7692

The dashed part of the orbit path shows where the satellite is in the earth's shadow,  

DLR